Simultaneous Nadir Overpasses (SNOs) Predictions

Prediction of SNOs between AQUA and TERRA Satellite Orbit:

Table of predicted SNOs for the next 14.0 days since TLE Epoch: 3/11/2023
Index Date (AQUA) Time (AQUA) Lat,Lon (AQUA) SZA (AQUA ) Date (TERRA) Time (TERRA) Lat,Lon (TERRA) SZA (TERRA ) Distance(km) Time Diff (sec)
1 03/13/2023 01:31:47 73.27, 154.72 76.32 03/13/2023 01:32:53 73.21, 157.13 76.21 77.47 66
2 03/13/2023 02:21:11 -73.27, -37.63 103.70 03/13/2023 02:22:17 -73.22, -35.20 103.79 78.18 66
3 03/13/2023 03:10:34 73.10, 130.36 76.12 03/13/2023 03:11:41 73.05, 132.13 76.03 57.48 67
4 03/13/2023 03:59:58 -73.10, -61.99 103.90 03/13/2023 04:01:06 -73.01, -60.30 104.03 55.78 68
5 03/13/2023 04:49:20 72.88, 106.09 75.86 03/13/2023 04:50:30 72.84, 107.03 75.80 30.91 70
6 03/13/2023 05:38:44 -72.88, -86.26 104.16 03/13/2023 05:39:54 -72.85, -85.30 104.21 31.78 70
7 03/13/2023 06:28:07 72.71, 81.72 75.65 03/13/2023 06:29:18 72.68, 82.04 75.61 11.09 71
8 03/13/2023 07:17:31 -72.71,-110.64 104.36 03/13/2023 07:18:43 -72.64,-110.38 104.44 11.51 72
9 03/13/2023 08:06:55 72.59, 57.23 75.51 03/13/2023 08:08:05 72.57, 57.15 75.48 3.25 70
10 03/13/2023 08:56:19 -72.59,-135.12 104.51 03/13/2023 08:57:29 -72.59,-135.17 104.52 1.60 70
11 03/13/2023 09:45:45 72.58, 32.55 75.47 03/13/2023 09:46:50 72.57, 32.47 75.46 2.68 65
12 03/13/2023 10:35:09 -72.58,-159.81 104.55 03/13/2023 10:36:14 -72.59,-159.85 104.55 1.62 65
13 03/13/2023 11:24:35 72.57, 7.86 75.43 03/13/2023 11:25:35 72.57, 7.78 75.43 2.69 60
14 03/13/2023 12:13:59 -72.57, 175.50 104.59 03/13/2023 12:14:59 -72.59, 175.46 104.57 2.49 60
15 03/13/2023 13:03:25 72.56, -16.83 75.39 03/13/2023 13:04:20 72.58, -16.91 75.41 3.27 55
16 03/13/2023 13:52:50 -72.61, 150.71 104.57 03/13/2023 13:53:44 -72.59, 150.77 104.60 3.21 54
17 03/13/2023 14:42:16 72.60, -41.62 75.41 03/13/2023 14:43:05 72.58, -41.59 75.38 2.73 49
18 03/13/2023 15:31:40 -72.60, 126.03 104.61 03/13/2023 15:32:29 -72.59, 126.09 104.62 2.36 49
19 03/13/2023 16:21:06 72.59, -66.31 75.37 03/13/2023 16:21:50 72.58, -66.28 75.35 1.60 44
20 03/13/2023 17:10:30 -72.59, 101.34 104.65 03/13/2023 17:11:14 -72.59, 101.40 104.65 2.05 44
21 03/13/2023 17:59:56 72.58, -90.99 75.33 03/13/2023 18:00:35 72.58, -90.97 75.33 0.95 39
22 03/13/2023 18:49:20 -72.58, 76.65 104.68 03/13/2023 18:49:59 -72.59, 76.71 104.68 2.47 39
23 03/13/2023 19:38:46 72.57,-115.68 75.29 03/13/2023 19:39:20 72.58,-115.65 75.30 1.53 34
24 03/13/2023 20:28:10 -72.57, 51.96 104.72 03/13/2023 20:28:44 -72.59, 52.03 104.70 3.33 34
25 03/13/2023 21:17:36 72.56,-140.37 75.25 03/13/2023 21:18:05 72.58,-140.34 75.27 2.60 29
26 03/13/2023 22:07:00 -72.56, 27.27 104.76 03/13/2023 22:07:30 -72.54, 27.24 104.78 2.40 30
27 03/13/2023 22:56:26 72.55,-165.06 75.22 03/13/2023 22:56:51 72.53,-165.13 75.19 3.22 25
28 03/13/2023 23:45:50 -72.55, 2.58 104.80 03/13/2023 23:46:15 -72.54, 2.55 104.81 1.38 25
29 03/14/2023 00:35:16 72.54, 170.25 75.18 03/14/2023 00:35:36 72.53, 170.19 75.17 2.43 20
30 03/14/2023 01:24:40 -72.54, -22.11 104.84 03/14/2023 01:25:00 -72.54, -22.13 104.84 1.00 20
31 03/14/2023 02:14:06 72.53, 145.56 75.14 03/14/2023 02:14:21 72.53, 145.50 75.14 2.06 15
32 03/14/2023 03:03:30 -72.53, -46.79 104.87 03/14/2023 03:03:45 -72.54, -46.82 104.86 1.72 15
33 03/14/2023 03:52:56 72.52, 120.87 75.10 03/14/2023 03:53:06 72.53, 120.81 75.11 2.32 10
34 03/14/2023 04:42:20 -72.52, -71.48 104.91 03/14/2023 04:42:30 -72.54, -71.51 104.89 2.78 10
35 03/14/2023 05:31:46 72.51, 96.18 75.07 03/14/2023 05:31:51 72.53, 96.12 75.09 3.02 5
36 03/14/2023 06:21:11 -72.56, -96.27 104.89 03/14/2023 06:21:15 -72.54, -96.20 104.92 3.30 4
37 03/14/2023 07:10:37 72.55, 71.39 75.08 03/14/2023 07:10:36 72.53, 71.44 75.06 2.88 1
38 03/14/2023 08:00:01 -72.55,-120.96 104.93 03/14/2023 08:00:00 -72.54,-120.88 104.94 2.80 1
39 03/14/2023 08:49:27 72.54, 46.70 75.05 03/14/2023 08:49:21 72.53, 46.75 75.03 2.06 6
40 03/14/2023 09:38:51 -72.54,-145.65 104.97 03/14/2023 09:38:45 -72.54,-145.57 104.97 2.72 6
41 03/14/2023 10:28:17 72.53, 22.01 75.01 03/14/2023 10:28:06 72.53, 22.06 75.01 1.66 11
42 03/14/2023 11:17:41 -72.53,-170.34 105.01 03/14/2023 11:17:30 -72.54,-170.26 105.00 3.09 11
43 03/14/2023 12:07:07 72.52, -2.68 74.97 03/14/2023 12:06:51 72.53, -2.63 74.98 1.93 16
44 03/14/2023 12:56:31 -72.52, 164.97 105.04 03/14/2023 12:56:16 -72.49, 164.96 105.07 3.52 15
45 03/14/2023 13:45:57 72.51, -27.37 74.93 03/14/2023 13:45:36 72.53, -27.31 74.95 2.65 21
46 03/14/2023 14:35:21 -72.51, 140.28 105.08 03/14/2023 14:35:01 -72.49, 140.27 105.10 2.43 20
47 03/14/2023 15:24:47 72.50, -52.06 74.90 03/14/2023 15:24:22 72.47, -52.10 74.87 3.27 25
48 03/14/2023 16:14:11 -72.50, 115.59 105.12 03/14/2023 16:13:46 -72.49, 115.58 105.13 1.35 25
49 03/14/2023 17:03:37 72.49, -76.75 74.86 03/14/2023 17:03:07 72.47, -76.79 74.85 2.31 30
50 03/14/2023 17:53:00 -72.49, 90.90 105.16 03/14/2023 17:52:30 -72.49, 90.89 105.16 0.31 30
51 03/14/2023 18:42:26 72.48,-101.44 74.82 03/14/2023 18:41:51 72.47,-101.48 74.82 1.49 35
52 03/14/2023 19:31:50 -72.48, 66.21 105.19 03/14/2023 19:31:15 -72.49, 66.20 105.18 0.78 35
53 03/14/2023 20:21:16 72.47,-126.13 74.79 03/14/2023 20:20:36 72.47,-126.16 74.79 1.13 40
54 03/14/2023 21:10:40 -72.48, 41.52 105.23 03/14/2023 21:10:00 -72.49, 41.52 105.21 1.81 40
55 03/14/2023 22:00:06 72.46,-150.82 74.75 03/14/2023 21:59:21 72.47,-150.85 74.76 1.55 45
56 03/14/2023 22:49:30 -72.47, 16.82 105.27 03/14/2023 22:48:45 -72.49, 16.83 105.24 2.84 45
57 03/14/2023 23:38:56 72.45,-175.51 74.71 03/14/2023 23:38:06 72.47,-175.54 74.74 2.34 50
58 03/15/2023 00:28:20 -72.46, -7.87 105.30 03/15/2023 00:27:31 -72.44, -7.96 105.32 3.69 49
59 03/15/2023 01:17:46 72.45, 159.80 74.68 03/15/2023 01:16:51 72.47, 159.77 74.71 3.24 55
60 03/15/2023 02:07:10 -72.45, -32.56 105.34 03/15/2023 02:06:16 -72.44, -32.65 105.34 3.13 54
61 03/15/2023 02:56:37 72.49, 135.00 74.70 03/15/2023 02:55:36 72.47, 135.08 74.68 3.20 61
62 03/15/2023 03:46:00 -72.44, -57.25 105.38 03/15/2023 03:45:01 -72.44, -57.33 105.37 2.83 59
63 03/15/2023 04:35:27 72.48, 110.31 74.66 03/15/2023 04:34:21 72.47, 110.39 74.66 2.87 66
64 03/15/2023 05:24:50 -72.43, -81.94 105.41 03/15/2023 05:23:46 -72.44, -82.02 105.40 2.84 64
65 03/15/2023 06:14:17 72.47, 85.62 74.62 03/15/2023 06:13:06 72.47, 85.71 74.63 2.85 71
66 03/15/2023 07:03:40 -72.42,-106.63 105.45 03/15/2023 07:02:31 -72.44,-106.71 105.43 3.16 69
67 03/15/2023 07:53:05 72.36, 61.13 74.48 03/15/2023 07:51:53 72.37, 60.82 74.50 10.30 72
68 03/15/2023 08:42:29 -72.36,-131.23 105.54 03/15/2023 08:41:17 -72.38,-131.50 105.50 9.46 72
69 03/15/2023 09:31:52 72.19, 36.73 74.28 03/15/2023 09:30:41 72.20, 35.85 74.31 30.02 71
70 03/15/2023 10:21:16 -72.19,-155.63 105.74 03/15/2023 10:20:05 -72.22,-156.47 105.69 28.91 71
71 03/15/2023 11:10:38 71.97, 12.42 74.02 03/15/2023 11:09:30 71.99, 10.78 74.08 56.36 68
72 03/15/2023 12:00:03 -72.02, 179.97 105.94 03/15/2023 11:58:54 -72.01, 178.46 105.92 51.62 69
73 03/15/2023 12:49:25 71.80, -11.99 73.82 03/15/2023 12:48:19 71.77, -14.28 73.84 79.36 66
74 03/15/2023 13:38:49 -71.80, 155.65 106.19 03/15/2023 13:37:42 -71.85, 153.50 106.11 74.72 67
75 03/15/2023 14:28:12 71.63, -36.41 73.62 03/15/2023 14:27:07 71.61, -39.24 73.66 99.05 65
76 03/15/2023 15:17:36 -71.63, 131.23 106.39 03/15/2023 15:16:31 -71.63, 128.45 106.34 97.46 65



Historial Predications of SNOs between AQUA and TERRA
